This is the latest recevied weather packets stored in our database for station/object DC4XK-10. If no packets are shown the sender has not sent any weather packets the latest 10 day(s).
| Time | Temp. | Humidity | Pressure | Rain* | Wind** | Luminosity | Snow |
|---|---|---|---|---|---|---|---|
| 1777853331 | 14.44° C | 98% | 1007.4 hPa | 0 mm | 0 m/s | - | - |
| 1777852731 | 14.44° C | 98% | 1007.3 hPa | 0 mm | 1.79 m/s, 209° | - | - |
| 1777852131 | 14.44° C | 99% | 1007.4 hPa | 0 mm | 0 m/s | - | - |
| 1777851531 | 14.44° C | 99% | 1007.2 hPa | 0 mm | 0.45 m/s, 163° | - | - |
| 1777850931 | 14.44° C | 99% | 1007.4 hPa | 0 mm | 0.89 m/s, 253° | - | - |
| 1777850331 | 14.44° C | 99% | 1007.4 hPa | 0 mm | 0.45 m/s, 271° | - | - |
| 1777849731 | 14.44° C | 99% | 1007.5 hPa | 0 mm | 1.34 m/s, 235° | - | - |
| 1777849130 | 14.44° C | 99% | 1007.5 hPa | 0 mm | 0.89 m/s, 272° | - | - |
| 1777848530 | 14.44° C | 99% | 1007.5 hPa | 0 mm | 0 m/s | - | - |
| 1777847931 | 14.44° C | 99% | 1007.6 hPa | 0 mm | 0 m/s | - | - |
| 1777847331 | 14.44° C | 99% | 1007.4 hPa | 0 mm | 0.45 m/s, 218° | - | - |
| 1777846730 | 15° C | 99% | 1007.6 hPa | 0 mm | 0.45 m/s, 160° | - | - |
| 1777846131 | 15° C | 98% | 1007.5 hPa | 0 mm | 0.89 m/s, 257° | - | - |
| 1777845530 | 15° C | 98% | 1007.4 hPa | 0 mm | 1.34 m/s, 284° | - | - |
| 1777844931 | 15° C | 98% | 1007.4 hPa | 0 mm | 1.34 m/s, 232° | - | - |
| 1777844333 | 15° C | 97% | 1007.4 hPa | 0 mm | 2.24 m/s, 240° | - | - |
| 1777843731 | 15.56° C | 96% | 1007.4 hPa | 0 mm | 0 m/s | - | - |
| 1777843131 | 15.56° C | 95% | 1007.3 hPa | 1.27 mm | 0.89 m/s, 240° | - | - |
| 1777842533 | 15.56° C | 93% | 1007.2 hPa | 0 mm | 0.89 m/s, 286° | - | - |
| 1777841930 | 15.56° C | 93% | 1007.2 hPa | 0 mm | 0 m/s | - | - |
| 1777841331 | 15.56° C | 95% | 1007.2 hPa | 0 mm | 1.34 m/s, 213° | - | - |
| 1777840734 | 15.56° C | 95% | 1007.2 hPa | 0 mm | 0 m/s | - | - |
| 1777840131 | 16.11° C | 94% | 1007.3 hPa | 0 mm | 0 m/s | - | - |
| 1777839530 | 16.11° C | 93% | 1007.2 hPa | 0 mm | 0.89 m/s, 283° | - | - |
| 1777838932 | 16.11° C | 92% | 1007.4 hPa | 0 mm | 0.89 m/s, 169° | - | - |
* Rain latest hour (hover to see other rain measurements)
** Current wind speed in m/s (hover to see current wind gust speed)